• In Hungary
  • List of Countries
  • For 7 days
  • Water Temperature
  • Satellite Maps
  • Weather Map
  • News
  • Weather Widgets
  • user-avatar
    Login

    Hourly Weather Obock

    Today, 17 July, Tuesday

    Time Temperature Precipitation Wind Pressure Humidity
    00:00 +40°C° 0 mm 5 mps 749 mmHg 31%
    01:00 +40°C° 0 mm 5 mps 749 mmHg 29%
    02:00 +40°C° 0 mm 4 mps 749 mmHg 28%
    03:00 +39°C° 0 mm 3 mps 749 mmHg 27%
    04:00 +40°C° 0 mm 4 mps 750 mmHg 29%
    05:00 +38°C° 0 mm 4 mps 750 mmHg 30%
    06:00 +39°C° 0 mm 5 mps 750 mmHg 32%
    07:00 +40°C° 0 mm 5 mps 750 mmHg 30%
    08:00 +41°C° 0 mm 5 mps 751 mmHg 28%
    09:00 +43°C° 0 mm 5 mps 751 mmHg 22%
    10:00 +45°C° 0 mm 5 mps 750 mmHg 21%
    11:00 +46°C° 0 mm 5 mps 750 mmHg 20%
    12:00 +47°C° 0 mm 5 mps 750 mmHg 19%
    13:00 +47°C° 0 mm 6 mps 750 mmHg 19%
    14:00 +49°C° 0 mm 7 mps 749 mmHg 19%
    15:00 +49°C° 0 mm 7 mps 749 mmHg 18%
    16:00 +48°C° 0 mm 8 mps 748 mmHg 19%
    17:00 +48°C° 0 mm 8 mps 748 mmHg 21%
    18:00 +47°C° 0 mm 9 mps 748 mmHg 22%
    19:00 +45°C° 0 mm 8 mps 748 mmHg 24%
    20:00 +44°C° 0 mm 8 mps 749 mmHg 25%
    21:00 +43°C° 0 mm 7 mps 749 mmHg 27%
    22:00 +43°C° 0 mm 7 mps 749 mmHg 29%
    23:00 +41°C° 0 mm 6 mps 749 mmHg 31%

    Tomorrow, 18 July, Wednesday

    Time Temperature Precipitation Wind Pressure Humidity
    00:00 +41°C° 0 mm 6 mps 749 mmHg 33%
    01:00 +40°C° 0 mm 5 mps 749 mmHg 33%
    02:00 +40°C° 0 mm 5 mps 749 mmHg 34%
    03:00 +40°C° 0 mm 4 mps 749 mmHg 35%
    04:00 +38°C° 0 mm 4 mps 749 mmHg 35%
    05:00 +38°C° 0 mm 4 mps 749 mmHg 36%
    06:00 +39°C° 0 mm 5 mps 749 mmHg 36%
    07:00 +40°C° 0 mm 5 mps 750 mmHg 33%
    08:00 +41°C° 0 mm 6 mps 750 mmHg 31%
    09:00 +42°C° 0 mm 6 mps 751 mmHg 29%
    10:00 +44°C° 0 mm 6 mps 750 mmHg 27%
    11:00 +45°C° 0 mm 6 mps 750 mmHg 26%
    12:00 +46°C° 0 mm 6 mps 750 mmHg 24%
    13:00 +46°C° 0 mm 5 mps 749 mmHg 24%
    14:00 +45°C° 0 mm 4 mps 749 mmHg 23%
    15:00 +47°C° 0 mm 4 mps 748 mmHg 22%
    16:00 +45°C° 0.4 mm 4 mps 748 mmHg 24%
    17:00 +44°C° 0.4 mm 4 mps 748 mmHg 25%
    18:00 +43°C° 0.4 mm 4 mps 748 mmHg 26%
    19:00 +43°C° 0.2 mm 4 mps 748 mmHg 28%
    20:00 +42°C° 0.2 mm 4 mps 749 mmHg 29%
    21:00 +41°C° 0.2 mm 5 mps 750 mmHg 31%
    22:00 +41°C° 0.1 mm 5 mps 750 mmHg 32%
    23:00 +41°C° 0.1 mm 5 mps 750 mmHg 33%

    Day after tomorrow, 19 July, Thursday

    Time Temperature Precipitation Wind Pressure Humidity
    00:00 +40°C° 0.1 mm 5 mps 751 mmHg 34%
    01:00 +40°C° 0.1 mm 4 mps 750 mmHg 35%
    02:00 +40°C° 0.1 mm 4 mps 750 mmHg 36%
    03:00 +38°C° 0.1 mm 4 mps 750 mmHg 37%
    04:00 +38°C° 0 mm 4 mps 750 mmHg 38%
    05:00 +38°C° 0 mm 4 mps 750 mmHg 38%
    06:00 +38°C° 0 mm 4 mps 751 mmHg 38%
    07:00 +40°C° 0 mm 4 mps 751 mmHg 36%
    08:00 +40°C° 0 mm 5 mps 751 mmHg 34%
    09:00 +41°C° 0 mm 5 mps 752 mmHg 32%
    10:00 +42°C° 0 mm 5 mps 752 mmHg 30%
    11:00 +43°C° 0 mm 4 mps 752 mmHg 27%
    12:00 +44°C° 0 mm 4 mps 752 mmHg 25%
    13:00 +44°C° 0.1 mm 4 mps 751 mmHg 25%
    14:00 +44°C° 0.1 mm 4 mps 750 mmHg 25%
    15:00 +44°C° 0.1 mm 4 mps 749 mmHg 24%
    16:00 +44°C° 0.2 mm 4 mps 749 mmHg 26%
    17:00 +43°C° 0.2 mm 4 mps 749 mmHg 28%
    18:00 +42°C° 0.2 mm 4 mps 749 mmHg 29%
    19:00 +42°C° 0.3 mm 4 mps 750 mmHg 31%
    20:00 +41°C° 0.3 mm 4 mps 750 mmHg 32%
    21:00 +41°C° 0.3 mm 4 mps 751 mmHg 34%
    22:00 +39°C° 0 mm 3 mps 751 mmHg 34%
    23:00 +39°C° 0 mm 3 mps 751 mmHg 34%

    20 July, Friday

    Time Temperature Precipitation Wind Pressure Humidity
    00:00 +39°C° 0 mm 3 mps 751 mmHg 35%
    01:00 +39°C° 0 mm 3 mps 751 mmHg 36%
    02:00 +38°C° 0 mm 3 mps 750 mmHg 38%
    03:00 +38°C° 0 mm 4 mps 750 mmHg 39%
    04:00 +37°C° 0 mm 4 mps 751 mmHg 40%
    05:00 +37°C° 0 mm 5 mps 751 mmHg 40%
    06:00 +37°C° 0 mm 5 mps 751 mmHg 41%
    07:00 +39°C° 0 mm 5 mps 752 mmHg 38%
    08:00 +39°C° 0 mm 6 mps 752 mmHg 36%
    09:00 +40°C° 0 mm 6 mps 753 mmHg 34%
    10:00 +41°C° 0 mm 6 mps 752 mmHg 32%
    11:00 +42°C° 0 mm 5 mps 752 mmHg 30%
    12:00 +43°C° 0 mm 5 mps 752 mmHg 28%
    13:00 +43°C° 0 mm 5 mps 751 mmHg 27%
    14:00 +45°C° 0 mm 5 mps 750 mmHg 27%
    15:00 +44°C° 0 mm 4 mps 749 mmHg 26%
    16:00 +45°C° 0.1 mm 5 mps 749 mmHg 27%
    17:00 +43°C° 0.1 mm 5 mps 749 mmHg 27%
    18:00 +43°C° 0.1 mm 5 mps 749 mmHg 28%
    19:00 +42°C° 0.1 mm 5 mps 749 mmHg 29%
    20:00 +41°C° 0.1 mm 5 mps 750 mmHg 31%
    21:00 +41°C° 0.1 mm 6 mps 750 mmHg 32%
    22:00 +40°C° 0 mm 5 mps 750 mmHg 33%
    23:00 +40°C° 0 mm 5 mps 750 mmHg 35%

    21 July, Saturday

    Time Temperature Precipitation Wind Pressure Humidity
    00:00 +40°C° 0 mm 5 mps 750 mmHg 36%
    01:00 +39°C° 0 mm 5 mps 750 mmHg 37%
    02:00 +39°C° 0 mm 5 mps 750 mmHg 38%
    03:00 +38°C° 0 mm 4 mps 750 mmHg 39%
    04:00 +38°C° 0 mm 4 mps 750 mmHg 40%
    05:00 +38°C° 0 mm 4 mps 750 mmHg 40%
    06:00 +37°C° 0 mm 4 mps 751 mmHg 41%
    07:00 +38°C° 0 mm 4 mps 751 mmHg 40%
    08:00 +38°C° 0 mm 4 mps 752 mmHg 38%
    09:00 +40°C° 0 mm 5 mps 752 mmHg 36%
    10:00 +40°C° 0 mm 5 mps 752 mmHg 34%
    11:00 +41°C° 0 mm 5 mps 751 mmHg 32%
    12:00 +42°C° 0 mm 5 mps 751 mmHg 30%
    13:00 +43°C° 0 mm 5 mps 750 mmHg 28%
    14:00 +43°C° 0 mm 4 mps 750 mmHg 27%
    15:00 +44°C° 0 mm 4 mps 749 mmHg 25%
    16:00 +43°C° 0 mm 4 mps 749 mmHg 26%
    17:00 +43°C° 0 mm 3 mps 749 mmHg 27%
    18:00 +42°C° 0 mm 3 mps 749 mmHg 28%
    19:00 +42°C° 0.1 mm 3 mps 750 mmHg 30%
    20:00 +40°C° 0.1 mm 3 mps 750 mmHg 32%
    21:00 +40°C° 0.1 mm 3 mps 751 mmHg 34%
    22:00 +39°C° 0 mm 3 mps 751 mmHg 35%
    23:00 +39°C° 0 mm 3 mps 750 mmHg 37%

    22 July, Sunday

    Time Temperature Precipitation Wind Pressure Humidity
    00:00 +39°C° 0 mm 2 mps 750 mmHg 38%
    01:00 +39°C° 0 mm 3 mps 750 mmHg 38%
    02:00 +38°C° 0 mm 3 mps 750 mmHg 38%
    03:00 +38°C° 0 mm 3 mps 750 mmHg 39%
    04:00 +38°C° 0 mm 3 mps 750 mmHg 39%
    05:00 +37°C° 0 mm 4 mps 751 mmHg 40%
    06:00 +37°C° 0 mm 4 mps 751 mmHg 41%
    07:00 +38°C° 0 mm 4 mps 751 mmHg 38%
    08:00 +40°C° 0 mm 4 mps 752 mmHg 35%
    09:00 +40°C° 0 mm 5 mps 752 mmHg 33%
    10:00 +41°C° 0 mm 4 mps 752 mmHg 30%
    11:00 +42°C° 0 mm 4 mps 751 mmHg 28%
    12:00 +43°C° 0 mm 4 mps 751 mmHg 26%
    13:00 +44°C° 0 mm 4 mps 750 mmHg 25%
    14:00 +44°C° 0 mm 3 mps 749 mmHg 24%
    15:00 +45°C° 0 mm 3 mps 749 mmHg 23%
    16:00 +44°C° 0.1 mm 3 mps 749 mmHg 24%
    17:00 +43°C° 0.1 mm 2 mps 749 mmHg 25%
    18:00 +43°C° 0.1 mm 2 mps 749 mmHg 26%
    19:00 +42°C° 0.1 mm 2 mps 749 mmHg 27%
    20:00 +41°C° 0.1 mm 2 mps 750 mmHg 29%
    21:00 +41°C° 0.1 mm 2 mps 750 mmHg 31%
    22:00 +40°C° 0 mm 2 mps 750 mmHg 32%
    23:00 +40°C° 0 mm 2 mps 750 mmHg 34%
    Show more